AirNav   Everest Fuels
 
 917 users online  

3PN5 H G F Heliport
Allentown, Pennsylvania, USA

GOING TO ALLENTOWN?


FAA INFORMATION EFFECTIVE 18 JUNE 2020

Location

FAA Identifier: 3PN5
Lat/Long: 40-33-54.3480N 075-33-28.6680W
40-33.905800N 075-33.477800W
40.5650967,-75.5579633
(estimated)
Elevation: 420 ft. / 128 m (estimated)
Variation: 11W (1985)
From city: 4 miles W of ALLENTOWN, PA
Time zone: UTC -4 (UTC -5 during Standard Time)
Zip code: 18106

Heliport Operations

Heliport use: Private use. Permission required prior to landing
Activation date: 12/1977
Control tower: no
ARTCC: NEW YORK CENTER
FSS: WILLIAMSPORT FLIGHT SERVICE STATION
Attendance: UNATNDD
Wind indicator: yes
Segmented circle: no

Heliport Communications

WX AWOS-3 at XLL (3 nm E): 127.875 (610-231-3111)
WX ASOS at ABE (7 nm NE): 126.975 (610-266-3579)
WX AWOS-3 at UKT (11 nm SE): 119.475 (215-538-7610)
WX AWOS-3 at CKZ (16 nm SE): 126.325 (215-257-7291)
WX AWOS-3PT at 22N (17 nm NW): 119.350 (570-386-3423)
WX ASOS at PTW (20 nm S): 119.425 (610-495-0823)

Nearby radio navigation aids

VOR radial/distance  VOR name  Freq  Var
ETXr108/5.8EAST TEXAS VOR/DME110.2009W
FJCr216/10.8ALLENTOWN VORTAC117.5010W
PTWr009/20.6POTTSTOWN VORTAC116.5009W
ARDr312/35.1YARDLEY VOR/DME108.2010W
BWZr258/36.3BROADWAY VOR/DME114.2011W
SBJr278/37.2SOLBERG VOR/DME112.9010W
MXEr017/39.2MODENA VORTAC113.2009W

 
NDB name  Hdg/Dist  Freq  Var  ID
AMBLER347/29.227512WING .. -. --.

Heliport Services

Airframe service: NONE
Powerplant service: NONE
Bottled oxygen: NONE
Bulk oxygen: NONE

Runway Information

Helipad H1

Dimensions: 32 x 32 ft. / 10 x 10 m
32' CIRCULAR TD WITHIN 60' X 60' ASPH LNDG/TKOFF AREA.
Surface: asphalt, in fair condition
Latitude: 40-33.905800N
Longitude: 075-33.477800W
Elevation: 420.0 ft.
Traffic pattern: leftleft
Markings: none, in fair condition
Runway end identifier lights: no

Heliport Ownership and Management from official FAA records

Ownership: Privately-owned
Owner: HGF ORGANIZATION, INC
HOTEL TRAYLOR/15TH & HAMILTON
ALLENTOWN, PA 18102
Phone 215-435-5913
Manager: MICHAEL J. KRAJSA

Heliport Operational Statistics

Aircraft based on the field: 1
Helicopters: 1
    

Additional Remarks

FOR CD CTC ALLENTOWN APCH AT 800-728-6322.

Instrument Procedures

There are no published instrument procedures at 3PN5.

Some nearby airports with instrument procedures:

KXLL - Allentown Queen City Municipal Airport (3 nm E)
KABE - Lehigh Valley International Airport (7 nm NE)
KUKT - Quakertown Airport (11 nm SE)
KCKZ - Pennridge Airport (16 nm SE)
22N - Jake Arner Memorial Airport (17 nm NW)
N43 - Braden Airpark (18 nm NE)
N47 - Pottstown Municipal Airport (19 nm S)
KPTW - Heritage Field Airport (20 nm S)
 
Loc | Ops | Rwys | IFR | FBO | Links
Com | Nav | Svcs | Stats | Notes
Area around 3PN5 (H G F Heliport)
 
Road maps at: MapQuest Bing Google
 
Aerial photo
No photo
 
Sectional chart

 
Airport distance calculator
Flying to H G F Heliport? Find the distance to fly.

From to 3PN5

Sunrise and sunset
Times for 07-Jul-2020
 Local
(UTC-4)
 Zulu
(UTC)
Morning civil twilight05:0709:07
Sunrise05:4009:40
Sunset20:3400:34
Evening civil twilight21:0701:07

Current date and time
Zulu (UTC)  08-Jul-2020 02:57:15
Local (UTC-4)  07-Jul-2020 22:57:15
 
METAR
KXLL 
3nm E 
080235Z AUTO 16004KT 10SM SCT033 SCT045 26/22 A3004 RMK AO2
KABE 
7nm NE 
080251Z 19007KT 10SM SCT030 BKN043 26/22 A3003 RMK AO2 SLP166 T02610217 51006
KUKT 
11nm SE 
080235Z AUTO 00000KT 10SM CLR 26/23 A3005 RMK A01
KCKZ 
16nm SE 
080235Z AUTO 00000KT 10SM FEW046 23/23 A3006 RMK AO2
K22N 
17nm NW 
080255Z AUTO 00000KT 7SM BKN035 BKN041 OVC046 21/21 A3005 RMK AO2
KPTW 
20nm S 
080254Z AUTO 20004KT 9SM CLR 24/21 A3006 RMK AO2 SLP176 T02440211 53012 $
TAF
KABE 
7nm NE 
071739Z 0718/0818 VRB04KT P6SM FEW035 FM071900 15005KT P6SM BKN060 FM080100 VRB03KT P6SM BKN060 FM080800 VRB05KT P6SM BKN025 FM081600 VRB04KT P6SM BKN035
NOTAMs
Click for the latest NOTAMs
NOTAMs are issued by the DoD/FAA and will open in a separate window not controlled by AirNav.

 

 
 

Would you like to see your business listed on this page?

 If your business provides an interesting product or service to pilots, flight crews, aircraft, or users of the H G F Heliport, you should consider listing it here.  To start the listing process, click on the button below
 
Add a business
 

Other Pages about H G F Heliport

Update a link
 
Copyright © AirNav, LLC. All rights reserved. Privacy Policy  Contact